1998-067VB

Last updated on Fri Feb 03 2023 00:02:05 GMT+0000 (Coordinated Universal Time)

1 55448U 98067VB 23033.68463878 .00020619 00000+0 36266-3 0 9990 2 55448 51.6405 274.7399 0004915 307.5162 84.4803 15.50432502 311
UTC large
Height (km)
Speed (km/s)
/
Latitude / Longitude
Inclination (degrees)
Orbital Period (minutes)
Azimuth
Elevation
Range (km)
Doppler Factor

Next 0 passes for location: London (51.5072 / 0.1276)

Sorry there are no passes over London.